Showing default

FLYING LAPTOP, 42831

Orbit data source: Space-Track

FLYING LAPTOP, 42831 is a payload satellite owned by IRS Stuttgart (DE) in SSO that was launched on Fri, 14 Jul 2017 UTC via a SOYUZ-2-1A launch vehicle from the Tyuratam Missile And Space Complex (TTMTR). Payload-class satellites include a variety of spacecraft equipped with specific instruments for various scientific and technological missions. These include communications satellites like Starlink; space stations such as the ISS; scientific satellites like the Hubble; Earth observation satellites from companies like Planet Labs, Umbra, and HawkEye 360; GPS; miniature CubeSats for education and research; and military/defense satellites.

Loading next visibility...
Identifier
42831, 2017-042G
Orbit
SSO
Country
Flag of DEDE / GER
Related business
Manufacturer
IRS Stuttgart
Mission
Operational Amateur Technology
Bus & Motor
FLP, Unknown motor
Mass
120 kg wet, 120 kg dry
Launch date (UTC)
2017-07-14 (9 years ago)
Launch vehicle
SOYUZ-2-1A
Launch site
Tyuratam Missile And Space Complex (TTMTR)
Object type
Payload
Rocket body
Debris
Shape & HBR
Box + 2 Pan, 1.1 m
Radar Cross Section
0.788 m², Medium (>0.1 m² and < 1m²)

Expand to show TLE details & history
Last TLE update: 22 hours ago

TLE from 22 hours ago
0 FLYING LAPTOP
1 42831U 17042G   26172.51823965  .00002809  00000-0  22268-3 0  9991
2 42831  97.4711 327.8846 0019774 107.8494 252.4889 15.01169766487108
Epoch: 2026-06-21T12:26Z
TLE epoch observation values (Epoch: 2026-06-21T12:26:15.905Z)
Latitude
-0.0001°
Longitude
-128.39902°
Altitude
570.507 km
Speed
7.573 km/s
True Right ascension
21h 51m 32s
True Declination
0° 00' 00"
Sunlit
Object was in full shadow at epoch
Visualization orbit readout
Latitude
Unknown
Longitude
Unknown
Altitude
Unknown
Speed
Unknown
Apparent Right ascension
Unknown
Apparent Declination
Unknown
Sunlit
N/A
Visualization observer readout
Local Sidereal Time
21:39:23
Azimuth
Unknown
Elevation
Unknown
Doppler factor
Unknown
Orbital elements
Apogee altitude
574.002 km
Perigee altitude
546.562 km
Semi-major axis
6,938.419 km
Eccentricity
0.00198
Inclination
97.4711°
RAAN
327.8846°
Arg. of periapsis
107.8494°
True anomaly
252.27297°
Mean anomaly
252.4889°
Eccentric anomaly
252.38092°
Mean motion
3.75537 °/min
Orbital period
95.86 mins
BSTAR
0.00022268
Loading maneuver chart data...
Computing Atmospheric mass density...

Documentation

Showing up to 5 results
|